Weather History for Moose Lake, MN

Change the Weather History Date:

Saturday, October 12, 2013

  Actual Average Record
Temperature  
Mean Temperature 52 °F -  
Max Temperature 59 °F 58 °F 80 °F (1956)
Min Temperature 46 °F 34 °F 19 °F (1988)
Degree Days  
Heating Degree Days 12    
Growing Degree Days 2 (Base 50)    
Moisture  
Dew Point 44 °F    
Average Humidity 79    
Maximum Humidity 93    
Minimum Humidity 62    
Precipitation  
Precipitation 0.00 in - - ()
Sea Level Pressure  
Sea Level Pressure 29.82 in    
Wind  
Wind Speed 10 mph (SW)    
Max Wind Speed 17 mph    
Max Gust Speed 26 mph    
Visibility 10 miles    
Events      
Averages and records for this station are not official NWS values.
T = Trace of Precipitation, MM = Missing Value Source: NWS Daily Summary

Daily Weather History Graph

Daily Weather History Graph

Search for Another Location

Airport:

Trip Planner

Search our weather history database for the weather conditions in past years. The results will help you decide how hot, cold, wet, or windy it might be!

Date:

Astronomy

Oct. 12, 2013 Rise Set
Actual Time 7:24 AM CDT 6:29 PM CDT
Civil Twilight 6:54 AM CDT 6:59 PM CDT
Nautical Twilight 6:19 AM CDT 7:34 PM CDT
Astronomical Twilight 5:44 AM CDT 8:09 PM CDT
Moon 2:59 PM CDT (10/12) 12:07 AM CDT (10/12)
Length of Visible Light 12h 05m
Length of Day
11h 04m
First Quarter, 59% of the Moon is Illuminated
Oct 12
First Quarter
Oct 18
Full
Oct 26
Last Quarter
Nov 3
New
Nov 9
First Quarter

Hourly Weather History & Observations

Time (CDT) Temp. Windchill Dew Point Humidity Pressure Visibility Wind Dir Wind Speed Gust Speed Precip Events Conditions
12:06 AM 59.0 °F - 55.4 °F 88% 29.62 in 10.0 mi SSW 4.6 mph - N/A   Drizzle
12:26 AM 59.0 °F - 55.4 °F 88% 29.61 in 10.0 mi South 5.8 mph - N/A   Overcast
12:46 AM 59.0 °F - 55.4 °F 88% 29.62 in 10.0 mi South 8.1 mph - N/A   Scattered Clouds
1:06 AM 59.0 °F - 53.6 °F 82% 29.62 in 10.0 mi South 8.1 mph - N/A   Clear
1:26 AM 57.2 °F - 53.6 °F 88% 29.62 in 10.0 mi South 10.4 mph - N/A   Scattered Clouds
1:46 AM 57.2 °F - 53.6 °F 88% 29.63 in 10.0 mi South 10.4 mph 16.1 mph N/A   Clear
2:06 AM 57.2 °F - 53.6 °F 88% 29.64 in 10.0 mi SSW 12.7 mph 19.6 mph N/A   Mostly Cloudy
2:26 AM 55.4 °F - 50.0 °F 82% 29.65 in 10.0 mi SW 17.3 mph 24.2 mph N/A   Overcast
2:46 AM 53.6 °F - 46.4 °F 77% 29.66 in 10.0 mi SSW 15.0 mph 26.5 mph N/A   Mostly Cloudy
3:06 AM 53.6 °F - 44.6 °F 72% 29.66 in 10.0 mi SSW 12.7 mph 25.3 mph N/A   Mostly Cloudy
3:26 AM 51.8 °F - 44.6 °F 76% 29.67 in 10.0 mi SSW 13.8 mph 24.2 mph N/A   Overcast
3:46 AM 51.8 °F - 44.6 °F 76% 29.67 in 10.0 mi SSW 13.8 mph 26.5 mph N/A   Overcast
4:06 AM 51.8 °F - 42.8 °F 71% 29.68 in 10.0 mi SSW 12.7 mph 24.2 mph N/A   Overcast
4:26 AM 51.8 °F - 42.8 °F 71% 29.69 in 10.0 mi SSW 11.5 mph 20.7 mph N/A   Overcast
4:46 AM 51.8 °F - 42.8 °F 71% 29.70 in 10.0 mi SSW 13.8 mph 20.7 mph N/A   Overcast
5:06 AM 50.0 °F - 41.0 °F 71% 29.70 in 10.0 mi SSW 10.4 mph 18.4 mph N/A   Overcast
5:26 AM 50.0 °F - 42.8 °F 76% 29.71 in 10.0 mi SSW 12.7 mph 18.4 mph N/A   Overcast
5:46 AM 50.0 °F - 42.8 °F 76% 29.71 in 10.0 mi SSW 12.7 mph 17.3 mph N/A   Overcast
6:06 AM 50.0 °F - 41.0 °F 71% 29.70 in 10.0 mi SSW 11.5 mph - N/A   Overcast
6:26 AM 50.0 °F - 41.0 °F 71% 29.70 in 10.0 mi SSW 8.1 mph - N/A   Overcast
6:46 AM 50.0 °F - 42.8 °F 76% 29.71 in 10.0 mi South 8.1 mph - N/A   Overcast
7:06 AM 50.0 °F - 42.8 °F 76% 29.72 in 10.0 mi SSW 10.4 mph 16.1 mph N/A   Overcast
7:26 AM 50.0 °F - 42.8 °F 76% 29.73 in 10.0 mi SSW 9.2 mph 16.1 mph N/A   Overcast
7:46 AM 50.0 °F - 42.8 °F 76% 29.74 in 10.0 mi SSW 11.5 mph - N/A   Overcast
8:06 AM 50.0 °F - 42.8 °F 76% 29.74 in 10.0 mi South 10.4 mph 16.1 mph N/A   Overcast
8:26 AM 50.0 °F - 42.8 °F 76% 29.74 in 10.0 mi SSW 10.4 mph 18.4 mph N/A   Overcast
8:46 AM 50.0 °F - 42.8 °F 76% 29.74 in 10.0 mi SSW 10.4 mph 17.3 mph N/A   Overcast
9:06 AM 50.0 °F - 42.8 °F 76% 29.75 in 10.0 mi SSW 11.5 mph - N/A   Overcast
9:26 AM 50.0 °F - 42.8 °F 76% 29.75 in 10.0 mi SSW 9.2 mph - N/A   Overcast
9:46 AM 50.0 °F - 42.8 °F 76% 29.76 in 10.0 mi SSW 11.5 mph 16.1 mph N/A   Overcast
10:06 AM 50.0 °F - 42.8 °F 76% 29.76 in 10.0 mi SSW 15.0 mph 19.6 mph N/A   Overcast
10:26 AM 51.8 °F - 42.8 °F 71% 29.76 in 10.0 mi SSW 10.4 mph 18.4 mph N/A   Overcast
10:46 AM 51.8 °F - 42.8 °F 71% 29.77 in 10.0 mi SSW 10.4 mph 20.7 mph N/A   Overcast
11:06 AM 51.8 °F - 42.8 °F 71% 29.77 in 10.0 mi SW 11.5 mph 23.0 mph N/A   Overcast
11:26 AM 51.8 °F - 42.8 °F 71% 29.77 in 10.0 mi SSW 13.8 mph 18.4 mph N/A   Overcast
11:46 AM 51.8 °F - 41.0 °F 67% 29.79 in 10.0 mi SW 10.4 mph 18.4 mph N/A   Overcast
12:06 PM 53.6 °F - 41.0 °F 62% 29.79 in 10.0 mi SSW 15.0 mph 21.9 mph N/A   Overcast
12:26 PM 51.8 °F - 41.0 °F 67% 29.80 in 10.0 mi SSW 13.8 mph 19.6 mph N/A   Overcast
12:46 PM 51.8 °F - 41.0 °F 67% 29.81 in 10.0 mi SSW 11.5 mph 17.3 mph N/A   Overcast
1:06 PM 51.8 °F - 41.0 °F 67% 29.81 in 10.0 mi SW 13.8 mph 24.2 mph N/A   Overcast
1:26 PM 51.8 °F - 41.0 °F 67% 29.81 in 10.0 mi SW 13.8 mph 18.4 mph N/A   Overcast
1:46 PM 51.8 °F - 41.0 °F 67% 29.81 in 10.0 mi SSW 13.8 mph 18.4 mph N/A   Overcast
2:06 PM 51.8 °F - 41.0 °F 67% 29.82 in 10.0 mi SW 11.5 mph 20.7 mph N/A   Overcast
2:26 PM 50.0 °F - 41.0 °F 71% 29.83 in 10.0 mi SW 13.8 mph 21.9 mph N/A   Overcast
2:46 PM 50.0 °F - 41.0 °F 71% 29.84 in 10.0 mi SSW 10.4 mph 18.4 mph N/A   Overcast
3:06 PM 50.0 °F - 41.0 °F 71% 29.84 in 10.0 mi SW 15.0 mph 20.7 mph N/A   Overcast
3:26 PM 50.0 °F - 41.0 °F 71% 29.85 in 10.0 mi SW 11.5 mph 20.7 mph N/A   Overcast
3:46 PM 48.2 °F - 41.0 °F 76% 29.86 in 10.0 mi WSW 10.4 mph 21.9 mph N/A   Overcast
4:06 PM 46.4 °F 40.7 °F 42.8 °F 87% 29.87 in 7.0 mi SW 12.7 mph 18.4 mph N/A   Overcast
4:26 PM 46.4 °F 41.9 °F 42.8 °F 87% 29.88 in 7.0 mi SW 9.2 mph - N/A   Drizzle
4:46 PM 46.4 °F 41.5 °F 42.8 °F 87% 29.89 in 10.0 mi SW 10.4 mph - N/A   Overcast
5:06 PM 46.4 °F 42.4 °F 42.8 °F 87% 29.90 in 7.0 mi SW 8.1 mph - N/A   Light Drizzle
5:26 PM 46.4 °F 42.4 °F 42.8 °F 87% 29.91 in 10.0 mi SW 8.1 mph - N/A   Light Drizzle
5:46 PM 46.4 °F 42.4 °F 42.8 °F 87% 29.92 in 10.0 mi SW 8.1 mph - N/A   Light Drizzle
6:06 PM 46.4 °F 42.4 °F 42.8 °F 87% 29.92 in 7.0 mi WSW 8.1 mph - N/A   Light Drizzle
6:26 PM 46.4 °F 42.4 °F 44.6 °F 93% 29.93 in 10.0 mi WSW 8.1 mph - N/A   Overcast
6:46 PM 46.4 °F 41.9 °F 42.8 °F 87% 29.95 in 7.0 mi WSW 9.2 mph - N/A   Overcast
7:06 PM 46.4 °F 42.4 °F 42.8 °F 87% 29.96 in 4.0 mi West 8.1 mph - N/A   Drizzle
7:26 PM 46.4 °F 41.9 °F 44.6 °F 93% 29.98 in 7.0 mi West 9.2 mph 16.1 mph N/A   Light Drizzle
7:46 PM 46.4 °F 42.9 °F 42.8 °F 87% 29.99 in 10.0 mi West 6.9 mph - N/A   Light Drizzle
8:06 PM 46.4 °F 42.4 °F 42.8 °F 87% 30.00 in 10.0 mi West 8.1 mph - N/A   Light Drizzle
8:26 PM 46.4 °F 42.9 °F 42.8 °F 87% 30.00 in 10.0 mi WSW 6.9 mph - N/A   Overcast
8:46 PM 46.4 °F 42.4 °F 42.8 °F 87% 30.01 in 10.0 mi West 8.1 mph - N/A   Overcast
9:06 PM 46.4 °F 42.9 °F 42.8 °F 87% 30.02 in 10.0 mi West 6.9 mph - N/A   Overcast
9:26 PM 46.4 °F 44.3 °F 42.8 °F 87% 30.03 in 10.0 mi West 4.6 mph - N/A   Overcast
9:46 PM 46.4 °F 43.5 °F 42.8 °F 87% 30.04 in 10.0 mi West 5.8 mph - N/A   Overcast
10:06 PM 46.4 °F 42.4 °F 42.8 °F 87% 30.05 in 10.0 mi West 8.1 mph - N/A   Overcast
10:26 PM 46.4 °F 44.3 °F 42.8 °F 87% 30.06 in 10.0 mi West 4.6 mph - N/A   Overcast
10:46 PM 46.4 °F 42.9 °F 42.8 °F 87% 30.06 in 10.0 mi West 6.9 mph - N/A   Overcast
11:06 PM 46.4 °F 42.9 °F 42.8 °F 87% 30.07 in 10.0 mi West 6.9 mph - N/A   Overcast
11:26 PM 46.4 °F 43.5 °F 41.0 °F 81% 30.09 in 10.0 mi West 5.8 mph - N/A   Overcast
11:46 PM 46.4 °F 42.9 °F 41.0 °F 81% 30.09 in 10.0 mi West 6.9 mph - N/A   Overcast